When you browse on this site, cookies collect data to enhance your experience and personalize the content and advertising you see.
Visit our Privacy Policy to learn more. By continuing to use the site, you agree to this use of cookies and data.
  • In Romania
  • List of Countries
  • For 7 days
  • Water Temperature
  • Satellite Maps
  • Weather Map
  • Weather Widgets
  • user-avatar
    Login

    Hourly Weather Bolshie Shady

    Today, 22 February, Friday

    Time Temperature Precipitation Wind Pressure Humidity
    00:00 -6°C° 0.3 mm 7 mps 745 mmHg 91%
    01:00 -6°C° 0.3 mm 7 mps 745 mmHg 91%
    02:00 -4°C° 0.2 mm 7 mps 745 mmHg 90%
    03:00 -4°C° 0.2 mm 7 mps 745 mmHg 90%
    04:00 -3°C° 0 mm 4 mps 745 mmHg 91%
    05:00 -4°C° 0 mm 5 mps 745 mmHg 90%
    06:00 -4°C° 0 mm 6 mps 744 mmHg 90%
    07:00 -6°C° 0 mm 7 mps 744 mmHg 89%
    08:00 -6°C° 0.1 mm 7 mps 744 mmHg 90%
    09:00 -4°C° 0.1 mm 7 mps 744 mmHg 90%
    10:00 -4°C° 0 mm 7 mps 744 mmHg 90%
    11:00 -4°C° 0.3 mm 7 mps 744 mmHg 90%
    12:00 -4°C° 0.3 mm 7 mps 743 mmHg 90%
    13:00 -3°C° 0.3 mm 7 mps 743 mmHg 91%
    14:00 -3°C° 0.4 mm 7 mps 743 mmHg 90%
    15:00 -3°C° 0.4 mm 7 mps 743 mmHg 90%
    16:00 -3°C° 0.4 mm 7 mps 743 mmHg 90%
    17:00 -3°C° 0.3 mm 7 mps 743 mmHg 90%
    18:00 -3°C° 0.3 mm 6 mps 744 mmHg 90%
    19:00 -3°C° 0.3 mm 6 mps 744 mmHg 90%
    20:00 -4°C° 0.1 mm 6 mps 745 mmHg 91%
    21:00 -5°C° 0.1 mm 6 mps 745 mmHg 92%
    22:00 -5°C° 0.1 mm 6 mps 746 mmHg 92%
    23:00 -8°C° 0.2 mm 6 mps 747 mmHg 91%

    Tomorrow, 23 February, Saturday

    Time Temperature Precipitation Wind Pressure Humidity
    00:00 -8°C° 0.2 mm 5 mps 748 mmHg 90%
    01:00 -10°C° 0.2 mm 5 mps 749 mmHg 89%
    02:00 -12°C° 0 mm 5 mps 749 mmHg 90%
    03:00 -12°C° 0 mm 4 mps 750 mmHg 91%
    04:00 -15°C° 0 mm 4 mps 750 mmHg 92%
    05:00 -15°C° 0 mm 4 mps 750 mmHg 93%
    06:00 -15°C° 0 mm 4 mps 751 mmHg 95%
    07:00 -15°C° 0 mm 3 mps 751 mmHg 96%
    08:00 -15°C° 0 mm 4 mps 751 mmHg 95%
    09:00 -14°C° 0 mm 4 mps 751 mmHg 94%
    10:00 -12°C° 0 mm 4 mps 751 mmHg 93%
    11:00 -11°C° 0.1 mm 4 mps 751 mmHg 93%
    12:00 -11°C° 0.1 mm 4 mps 751 mmHg 92%
    13:00 -10°C° 0.1 mm 4 mps 751 mmHg 92%
    14:00 -10°C° 0.1 mm 4 mps 751 mmHg 92%
    15:00 -10°C° 0.1 mm 4 mps 751 mmHg 92%
    16:00 -9°C° 0.1 mm 4 mps 751 mmHg 92%
    17:00 -9°C° 0.1 mm 4 mps 752 mmHg 93%
    18:00 -9°C° 0.1 mm 4 mps 752 mmHg 94%
    19:00 -9°C° 0.1 mm 4 mps 752 mmHg 95%
    20:00 -10°C° 0.1 mm 4 mps 752 mmHg 94%
    21:00 -10°C° 0.1 mm 4 mps 752 mmHg 94%
    22:00 -10°C° 0.1 mm 4 mps 752 mmHg 94%
    23:00 -11°C° 0.1 mm 4 mps 753 mmHg 94%

    Day after tomorrow, 24 February, Sunday

    Time Temperature Precipitation Wind Pressure Humidity
    00:00 -11°C° 0.1 mm 4 mps 753 mmHg 94%
    01:00 -12°C° 0.1 mm 4 mps 753 mmHg 94%
    02:00 -14°C° 0.1 mm 4 mps 754 mmHg 95%
    03:00 -14°C° 0.1 mm 4 mps 754 mmHg 95%
    04:00 -15°C° 0.1 mm 4 mps 754 mmHg 95%
    05:00 -17°C° 0 mm 4 mps 754 mmHg 96%
    06:00 -19°C° 0 mm 3 mps 754 mmHg 97%
    07:00 -22°C° 0 mm 3 mps 754 mmHg 98%
    08:00 -21°C° 0 mm 3 mps 754 mmHg 95%
    09:00 -21°C° 0 mm 3 mps 754 mmHg 92%
    10:00 -21°C° 0 mm 3 mps 754 mmHg 89%
    11:00 -18°C° 0 mm 3 mps 754 mmHg 88%
    12:00 -17°C° 0 mm 3 mps 754 mmHg 87%
    13:00 -17°C° 0 mm 4 mps 754 mmHg 86%
    14:00 -16°C° 0 mm 4 mps 754 mmHg 87%
    15:00 -16°C° 0 mm 4 mps 753 mmHg 87%
    16:00 -15°C° 0 mm 4 mps 753 mmHg 87%
    17:00 -16°C° 0 mm 4 mps 753 mmHg 88%
    18:00 -16°C° 0 mm 4 mps 753 mmHg 90%
    19:00 -16°C° 0 mm 4 mps 753 mmHg 91%
    20:00 -16°C° 0.1 mm 4 mps 753 mmHg 92%
    21:00 -16°C° 0.1 mm 4 mps 753 mmHg 93%
    22:00 -15°C° 0.1 mm 4 mps 753 mmHg 94%
    23:00 -16°C° 0.1 mm 4 mps 752 mmHg 94%

    25 February, Monday

    Time Temperature Precipitation Wind Pressure Humidity
    00:00 -16°C° 0.1 mm 4 mps 752 mmHg 95%
    01:00 -16°C° 0.1 mm 4 mps 752 mmHg 95%
    02:00 -15°C° 0.1 mm 3 mps 752 mmHg 95%
    03:00 -15°C° 0.1 mm 3 mps 752 mmHg 96%
    04:00 -16°C° 0.1 mm 3 mps 751 mmHg 96%
    05:00 -16°C° 0 mm 3 mps 751 mmHg 96%
    06:00 -16°C° 0 mm 3 mps 751 mmHg 96%
    07:00 -16°C° 0 mm 3 mps 750 mmHg 96%
    08:00 -16°C° 0.1 mm 4 mps 750 mmHg 96%
    09:00 -16°C° 0.1 mm 4 mps 750 mmHg 96%
    10:00 -15°C° 0.1 mm 4 mps 749 mmHg 95%
    11:00 -15°C° 0 mm 4 mps 749 mmHg 95%
    12:00 -14°C° 0 mm 5 mps 749 mmHg 94%
    13:00 -13°C° 0 mm 5 mps 748 mmHg 94%
    14:00 -13°C° 0.1 mm 5 mps 748 mmHg 93%
    15:00 -13°C° 0.1 mm 5 mps 747 mmHg 93%
    16:00 -12°C° 0.1 mm 5 mps 747 mmHg 93%
    17:00 -12°C° 0 mm 4 mps 747 mmHg 93%
    18:00 -12°C° 0 mm 4 mps 747 mmHg 93%
    19:00 -14°C° 0 mm 4 mps 746 mmHg 93%
    20:00 -14°C° 0 mm 4 mps 746 mmHg 94%
    21:00 -14°C° 0 mm 4 mps 746 mmHg 94%
    22:00 -14°C° 0 mm 3 mps 745 mmHg 95%
    23:00 -14°C° 0 mm 3 mps 745 mmHg 95%

    26 February, Tuesday

    Time Temperature Precipitation Wind Pressure Humidity
    00:00 -14°C° 0 mm 3 mps 745 mmHg 95%
    01:00 -15°C° 0 mm 3 mps 745 mmHg 96%
    02:00 -15°C° 0 mm 3 mps 744 mmHg 96%
    03:00 -15°C° 0 mm 3 mps 744 mmHg 96%
    04:00 -16°C° 0 mm 3 mps 744 mmHg 96%
    05:00 -16°C° 0 mm 3 mps 744 mmHg 96%
    06:00 -15°C° 0 mm 2 mps 744 mmHg 96%
    07:00 -15°C° 0 mm 2 mps 744 mmHg 96%
    08:00 -14°C° 0 mm 2 mps 743 mmHg 96%
    09:00 -14°C° 0 mm 2 mps 743 mmHg 95%
    10:00 -13°C° 0 mm 2 mps 743 mmHg 95%
    11:00 -12°C° 0 mm 2 mps 743 mmHg 93%
    12:00 -10°C° 0 mm 2 mps 743 mmHg 92%
    13:00 -10°C° 0 mm 2 mps 742 mmHg 91%
    14:00 -9°C° 0 mm 2 mps 742 mmHg 90%
    15:00 -8°C° 0 mm 1 mps 742 mmHg 90%
    16:00 -8°C° 0 mm 1 mps 742 mmHg 90%
    17:00 -9°C° 0 mm 1 mps 742 mmHg 91%
    18:00 -11°C° 0 mm 0 mps 742 mmHg 92%
    19:00 -12°C° 0 mm 0 mps 742 mmHg 93%
    20:00 -13°C° 0 mm 0 mps 742 mmHg 94%
    21:00 -13°C° 0 mm 0 mps 742 mmHg 94%
    22:00 -14°C° 0 mm 0 mps 742 mmHg 95%
    23:00 -14°C° 0 mm 1 mps 742 mmHg 95%

    27 February, Wednesday

    Time Temperature Precipitation Wind Pressure Humidity
    00:00 -15°C° 0 mm 1 mps 742 mmHg 95%
    01:00 -15°C° 0 mm 1 mps 743 mmHg 95%
    02:00 -15°C° 0 mm 1 mps 743 mmHg 94%
    03:00 -15°C° 0 mm 1 mps 743 mmHg 94%
    04:00 -15°C° 0 mm 1 mps 743 mmHg 93%
    05:00 -16°C° 0 mm 1 mps 743 mmHg 92%
    06:00 -16°C° 0 mm 1 mps 743 mmHg 92%
    07:00 -16°C° 0 mm 1 mps 743 mmHg 91%
    08:00 -14°C° 0 mm 1 mps 743 mmHg 90%
    09:00 -13°C° 0 mm 1 mps 744 mmHg 89%
    10:00 -11°C° 0 mm 1 mps 744 mmHg 88%
    11:00 -10°C° 0 mm 1 mps 744 mmHg 87%
    12:00 -9°C° 0 mm 1 mps 743 mmHg 86%
    13:00 -8°C° 0 mm 1 mps 743 mmHg 86%
    14:00 -8°C° 0 mm 1 mps 743 mmHg 88%
    15:00 -8°C° 0 mm 1 mps 743 mmHg 89%
    16:00 -8°C° 0 mm 1 mps 743 mmHg 91%
    17:00 -9°C° 0 mm 1 mps 743 mmHg 92%
    18:00 -11°C° 0 mm 1 mps 743 mmHg 93%
    19:00 -13°C° 0 mm 1 mps 743 mmHg 94%
    20:00 -14°C° 0 mm 1 mps 743 mmHg 95%
    21:00 -14°C° 0 mm 1 mps 743 mmHg 95%
    22:00 -15°C° 0 mm 1 mps 742 mmHg 96%
    23:00 -15°C° 0 mm 1 mps 742 mmHg 97%
    Show more